Torna al catalogo

STARLINK-31954

AttivoComunicazioniVLEO
NORAD 60102·PAYLOAD·🇺🇸 United States

Lanciato Jun 23, 2024 da Cape Canaveral Space Force Station

Loading…

Prossimi Passaggi (prossime 24 ore)

TLE

AggiornatoSource: CelesTrak SupGP

Epoca: Sep 14, 2026, 14:49 UTC

1 60102C 24117M   26257.61784722 -.00032199  00000+0 -95157-3 0  2575
2 60102  53.1563 237.4994 0001300  90.3764 192.6031 15.34398903    13

Traccia STARLINK-31954 in tempo reale con AllMySat

Download on the App Store